This demonstration page uses our WeatherBlox Daily Observations layout. Learn more.

Left ArrowRight Arrow

Hourly Observations for October 3, 2020

Temp ( °F °C ) Dew Point ( °F °C ) Humidity (%) Winds ( mph kmh ) Pressure ( in mb ) Visibility ( mi km ) Precip ( " mm )
12:15 am 00:15 Clear 48 9.1 42 5.7 79 79 NNE 6 9 30.05 1018 10 16 N/A
12:35 am 00:35 Clear 48 9 42 5.5 79 79 N 8 13 30.05 1018 10 16 N/A
12:55 am 00:55 Clear 48 8.7 42 5.5 81 81 NNW 8 13 30.06 1018 10 16 N/A
1:15 am 01:15 Clear 47 8.5 42 5.5 82 82 NW 6 9 30.07 1018 10 16 N/A
1:35 am 01:35 Partly Cloudy 46 8 42 5.5 84 84 NNW 8 13 30.07 1018 10 16 N/A
1:55 am 01:55 Clear 46 7.8 42 5.5 86 86 NNW 8 13 30.07 1018 10 16 N/A
2:15 am 02:15 Clear 46 7.5 42 5.4 87 87 NNW 6 9 30.08 1018 10 16 N/A
2:35 am 02:35 Clear 45 7.2 42 5.5 89 89 NW 7 11 30.08 1019 10 16 N/A
2:55 am 02:55 Clear 45 7.3 42 5.7 90 90 NW 5 7 30.09 1019 10 16 N/A
3:15 am 03:15 Clear 45 7 42 5.5 90 90 NW 6 9 30.08 1019 10 16 N/A
3:35 am 03:35 Clear 45 7.1 42 5.7 91 91 NW 7 11 30.08 1019 10 16 N/A
3:55 am 03:55 Clear 45 7.3 42 5.7 90 90 NW 5 7 30.09 1019 10 16 N/A
4:15 am 04:15 Clear 45 7.3 42 5.6 89 89 NW 7 11 30.08 1019 10 16 N/A
4:35 am 04:35 Clear 46 7.5 42 5.7 88 88 NW 6 9 30.10 1019 10 16 N/A
4:55 am 04:55 Clear 46 7.9 43 6 88 88 NNW 7 11 30.09 1019 10 16 N/A
5:15 am 05:15 Clear 46 7.8 42 5.7 87 87 NNW 7 11 30.09 1019 10 16 N/A
5:35 am 05:35 Clear 46 7.6 42 5.6 87 87 NNW 8 13 30.09 1019 10 16 N/A
5:55 am 05:55 Clear 45 7.4 42 5.5 88 88 NNW 7 11 30.10 1019 10 16 N/A
6:15 am 06:15 Clear 45 7.1 42 5.5 90 90 NNW 9 15 30.11 1020 10 16 N/A
6:35 am 06:35 Clear 44 6.8 41 5.2 90 90 N 6 9 30.11 1020 10 16 N/A
6:55 am 06:55 Clear 44 6.6 41 5.1 90 90 NNW 6 9 30.11 1020 10 16 N/A
7:15 am 07:15 Clear 43 6.1 40 4.7 91 91 NNW 3 6 30.13 1020 10 16 N/A
7:35 am 07:35 Clear 42 5.5 40 4.3 92 92 N N/A 30.14 1021 10 16 N/A
7:55 am 07:55 Sunny 40 4.5 38 3.5 93 93 N N/A 30.18 1022 10 16 N/A
8:15 am 08:15 Sunny 41 4.8 39 4 95 95 N 3 6 30.18 1022 10 16 N/A
8:35 am 08:35 Partly Cloudy 42 5.7 41 4.8 94 94 N N/A 30.16 1021 10 16 N/A
8:55 am 08:55 Cloudy with Mist and Fog 42 5.6 41 4.8 95 95 N 6 9 30.16 1021 1 1 N/A
9:15 am 09:15 Cloudy with Fog 43 5.9 42 5.3 96 96 N 5 7 30.18 1022 1 1 N/A
9:35 am 09:35 Cloudy 44 6.6 43 6 96 96 N 7 11 30.18 1022 7 11 N/A
9:55 am 09:55 Cloudy 45 7 43 6.3 95 95 N 5 7 30.19 1022 10 16 N/A
10:15 am 10:15 Cloudy 46 7.6 44 6.5 93 93 NNW 3 6 30.18 1022 10 16 N/A
10:35 am 10:35 Cloudy 48 8.8 44 6.6 86 86 N 7 11 30.18 1022 10 16 N/A
10:55 am 10:55 Cloudy 50 9.9 43 6.3 79 79 N 8 13 30.15 1021 10 16 N/A
11:15 am 11:15 Partly Cloudy 51 10.7 44 6.5 75 75 N 7 11 30.16 1021 10 16 N/A
11:35 am 11:35 Sunny 53 11.6 44 6.5 71 71 NNW 6 9 30.15 1021 10 16 N/A
11:55 am 11:55 Sunny 54 12.2 44 6.5 68 68 N 7 11 30.14 1021 10 16 N/A
12:15 pm 12:15 Sunny 55 12.8 43 6.3 65 65 N 9 15 30.14 1021 10 16 N/A
12:35 pm 12:35 Sunny 56 13.5 44 6.6 63 63 NNW 8 13 30.14 1021 10 16 N/A
12:55 pm 12:55 Sunny 57 13.7 43 6.3 61 61 N 9 15 30.15 1021 10 16 N/A
1:15 pm 13:15 Sunny 58 14.5 43 6.3 58 58 NNW 10 17 30.13 1020 10 16 N/A
1:35 pm 13:35 Sunny 58 14.7 42 5.7 55 55 N 9 15 30.13 1020 10 16 N/A
1:55 pm 13:55 Sunny 60 15.5 41 5 50 50 N 14 22 30.12 1020 10 16 N/A
2:15 pm 14:15 Sunny 60 15.8 41 5 49 49 N 10 17 30.12 1020 10 16 N/A
2:35 pm 14:35 Sunny 62 16.4 41 4.9 47 47 NNW 10 17 30.11 1020 10 16 N/A
2:55 pm 14:55 Sunny 62 16.9 40 4.2 43 43 NNW 12 19 30.09 1019 10 16 N/A
3:15 pm 15:15 Sunny 63 17 39 3.8 42 42 N 8 13 30.08 1019 10 16 N/A
3:35 pm 15:35 Sunny 63 17.2 39 4 42 42 N 6 9 30.08 1019 10 16 N/A
3:55 pm 15:55 Sunny 64 17.8 38 3.4 38 38 N 10 17 30.07 1018 10 16 N/A
4:15 pm 16:15 Sunny 64 18 39 3.7 39 39 N 8 13 30.06 1018 10 16 N/A
4:35 pm 16:35 Sunny 64 17.8 39 3.8 40 40 N 8 13 30.08 1018 10 16 N/A
4:55 pm 16:55 Sunny 64 17.6 39 3.8 40 40 N 10 17 30.07 1018 10 16 N/A
5:15 pm 17:15 Mostly Cloudy 63 17.1 39 4 42 42 NNE 7 11 30.07 1018 10 16 N/A
5:35 pm 17:35 Mostly Cloudy 63 17.1 39 3.7 41 41 NNE 7 11 30.06 1018 10 16 N/A
5:55 pm 17:55 Partly Cloudy 63 17 39 3.9 42 42 NE 10 17 30.07 1018 10 16 N/A
6:15 pm 18:15 Mostly Cloudy 62 16.5 39 4 44 44 NNE 8 13 30.09 1019 10 16 N/A
6:35 pm 18:35 Cloudy 61 15.9 39 4.1 46 46 ENE 6 9 30.10 1019 10 16 N/A
6:55 pm 18:55 Partly Cloudy 59 15 39 4 48 48 ENE 7 11 30.11 1020 10 16 N/A
7:15 pm 19:15 Sunny 55 13 39 4.1 55 55 ENE 5 7 30.13 1020 10 16 N/A
7:35 pm 19:35 Clear 53 11.5 39 3.7 59 59 ENE 7 11 30.15 1021 10 16 N/A
7:55 pm 19:55 Clear 51 10.5 38 3.3 61 61 ENE 7 11 30.16 1021 10 16 N/A
8:15 pm 20:15 Clear 49 9.6 38 3.3 65 65 ENE 7 11 30.18 1022 10 16 N/A
8:35 pm 20:35 Clear 49 9.6 37 3 64 64 ESE 3 6 30.19 1022 10 16 N/A
8:55 pm 20:55 Clear 48 8.7 36 2.2 64 64 ESE 6 9 30.19 1022 10 16 N/A
9:15 pm 21:15 Clear 45 7.1 35 1.9 70 70 ESE 5 7 30.21 1023 7 11 N/A
9:35 pm 21:35 Clear 46 7.6 36 2.3 69 69 ESE 6 9 30.21 1023 10 16 N/A
9:55 pm 21:55 Clear 44 6.5 35 1.9 73 73 SE 5 7 30.23 1024 10 16 N/A
10:15 pm 22:15 Clear 43 6.1 36 2.2 76 76 N N/A 30.24 1024 10 16 N/A
10:35 pm 22:35 Clear 45 7 37 2.5 73 73 N N/A 30.23 1024 10 16 N/A
10:55 pm 22:55 Clear 46 7.6 37 3 73 73 SSE 5 7 30.24 1024 10 16 N/A
11:15 pm 23:15 Clear 45 7.3 37 2.8 73 73 S 5 7 30.25 1024 10 16 N/A
11:35 pm 23:35 Clear 44 6.9 37 2.6 74 74 S 3 6 30.24 1024 10 16 N/A
11:55 pm 23:55 Clear 43 6.2 37 2.5 77 77 SSE 6 9 30.24 1024 10 16 N/A

Powered by AerisWeather